Regional Weather Roundup
Issued by NWS

Home | Current Version | Previous Version | Text Only | Print | Product List | Glossary Off
Versions: 1 2 3 4 5 6 7 8 9 10 11 12 13 14 15 16 17 18 19 20 21 22 23 24 25 26 27 28 29 30 31 32 33 34 35 36 37 38 39 40 41 42 43 44 45 46 47 48 49 50

971
ASUS43 KLMK 291802
RWRKY
KENTUCKY REGIONAL WEATHER ROUNDUP
NATIONAL WEATHER SERVICE LOUISVILLE KY
200 PM EDT FRI JUL 29 2016

NOTE "FAIR" INDICATES FEW OR NO CLOUDS BELOW 12,000 FEET
WITH NO SIGNIFICANT WEATHER AND/OR OBSTRUCTIONS TO VISIBILITY.

KYZ001>023-026-027-061>063-070>075-291900-
WESTERN AND SOUTH CENTRAL KENTUCKY

CITY           SKY/WX    TMP DP  RH WIND       PRES   REMARKS
PADUCAH        CLOUDY    84  73  69 SW9       29.94F HX  90
HENDERSON      PTSUNNY   84  73  70 SW5       29.92F HX  91
OWENSBORO      PTSUNNY   85  76  74 SW8       29.94F HX  94
HOPKINSVILLE   PTSUNNY   85  75  71 W13       29.95S HX  93
BOWLING GREEN  MOSUNNY   78  72  81 S5        29.97F
GLASGOW        NOT AVBL
$$

KYZ024-025-028>034-038-045-046-053-291900-
NORTH CENTRAL KENTUCKY

CITY           SKY/WX    TMP DP  RH WIND       PRES   REMARKS
LOUISVILLE/SDF PTSUNNY   87  71  58 VRB6      29.92F HX  93
LOUISVILLE/LOU MOSUNNY   85  70  60 CALM      29.93F
FORT KNOX      PTSUNNY   80  73  78 S9        29.95R
$$

KYZ035>037-039>044-047>052-055>060-089>105-291900-
NORTHEAST KENTUCKY

CITY           SKY/WX    TMP DP  RH WIND       PRES   REMARKS
LEXINGTON      MOSUNNY   86  70  58 CALM      29.95F HX  90
COVINGTON      PTSUNNY   84  70  62 W7        29.94F
FRANKFORT      MOSUNNY   86  70  58 MISG      29.94F HX  90
$$

KYZ054-064>069-076>088-106>120-291900-
SOUTHEAST KENTUCKY

CITY           SKY/WX    TMP DP  RH WIND       PRES   REMARKS
JACKSON        PTSUNNY   81  71  71 VRB3      29.99F
LONDON         MOSUNNY   84  69  60 W9        29.98F
SOMERSET       TSTM      73  72  94 W10       30.01R
MIDDLESBORO    MOSUNNY   83  71  67 S9        29.99F
MONTICELLO     TSTM     N/A N/A N/A NW13G24   30.01R
$$





USA.gov is the U.S. government's official web portal to all federal, state and local government web resources and services.